Location: ???? ??
(36.0534°N, 43.5630°E)
Time: 16:03:29
(UTC+00:00)

ASTEX 1 - Pass Details

Date: 18 September 2019
Orbit: 719 x 744 km, 92.7° (Epoch: 14 October)

Event Time Altitude Azimuth Distance (km) Brightness Sun altitude
Rises 15:41:40 0° 20° (NNE) 3,136 6.5 -7.3°
Reaches altitude 10° 15:44:21 10° 34° (NE) 2,210 5.6 -7.9°
Maximum altitude 15:48:19 25° 89° (E) 1,444 4.4 -8.7°
Drops below altitude 10° 15:52:16 10° 143° (SE) 2,201 5.5 -9.5°
Sets 15:54:55 0° 157° (SSE) 3,119 6.3 -10.0°
